Simultaneous Nadir Overpasses (SNOs) Predictions

Prediction of SNOs between GOES-15 and NOAA-20 Satellite Orbit:

Table of predicted SNOs for the next 14.0 days since TLE Epoch: 2/24/2024
Index Date Time (GOES-15) GOES-15 Lat,Lon NOAA-20 Lat,Lon Distance(km) Time Diff (sec)
1 02/24/2024 09:17:51 -0.03, 61.39 0.14, 62.19 90.60 80
2 02/25/2024 21:39:38 0.03, 61.29 1.04, 56.93 498.47 80
3 02/26/2024 21:18:14 0.03, 61.29 0.01, 61.45 18.86 80
4 02/29/2024 09:21:26 -0.03, 61.36 -0.17, 60.68 77.12 80
5 03/01/2024 09:05:21 -0.03, 61.36 0.86, 65.21 439.80 80
6 03/02/2024 21:27:08 0.03, 61.27 0.31, 59.94 150.39 80
7 03/03/2024 21:05:43 0.03, 61.27 -0.67, 64.49 365.88 80
8 03/05/2024 09:30:19 -0.04, 61.37 -0.51, 59.18 248.73 80
9 03/06/2024 09:11:34 -0.04, 61.37 0.47, 63.72 267.30 80
10 03/07/2024 21:33:21 0.05, 61.29 0.70, 58.46 323.77 80
11 03/08/2024 21:11:57 0.05, 61.30 -0.35, 62.98 192.01 80
